sat.trackr.live / text

‹ back to catalog

STARLINK-31397

NORAD 59540 · 2024-074G

PAYLOAD ACTIVE UNKNOWN

§ Identity

Operator
Country
US
Launch date
2024-04-18
Launch site
AFETR
Launch vehicle
Mass (kg)
RCS (m²)

Purposes: comms

External: N2YO · Heavens-Above · Gunter

§ Orbital elements

Epoch: 2026-09-21T11:20:06.967968Z

Period
94.27 min
Inclination
43.0052°
Eccentricity
0.0001660
Mean motion
15.27583750 rev/d
Perigee alt
481.9 km
Apogee alt
484.2 km
Semi-major
6,861.2 km
B*
5.2197e-5
RAAN
318.1130°
Arg perigee
283.2569°
Mean anomaly
76.8098°
Rev number
13,595

§ Raw data

STARLINK-313971 59540U 24074G   26264.47230287  .00001174  00000+0  52197-4 0  99932 59540  43.0052 318.1130 0001660 283.2569  76.8098 15.27583750135958

JSON: /api/v1/satellites/59540 · /tle

For live sub-satellite position, see the globe view (requires WebGL).

§ Visibility from observer

Set your observer location to see the next 7 days of passes ≥ 10°. The values pass through the URL so the page stays shareable.

No JS? Fill the form by hand. The geolocation button needs JavaScript.